Regional Weather Roundup
Issued by NWS

Home | Current Version | Previous Version | Text Only | Print | Product List | Glossary On
Versions: 1 2 3 4 5 6 7 8 9 10 11 12 13 14 15 16 17 18 19 20 21 22 23 24 25 26 27 28 29 30 31 32 33 34 35 36 37 38 39 40 41 42 43 44 45 46 47 48 49 50
053
ASUS43 KLSX 270307
RWRMO

WEATHER SUMMARY FOR MISSOURI
NATIONAL WEATHER SERVICE SPRINGFIELD MO
1000 PM CDT FRI MAY 26 2017

NOTE: "FAIR" INDICATES FEW OR NO CLOUDS BELOW 12,000 FEET WITH NO
       SIGNIFICANT WEATHER AND/OR OBSTRUCTIONS TO VISIBILITY.
       CURRENT SKY AND/OR WEATHER CONDITIONS ARE NOT AVAILABLE FOR
       CHILLICOTHE AND FARMINGTON.

MOZ001>031-035>038-043-044-053-054-270400-
...NORTHERN AND WESTERN MISSOURI...

CITY           SKY/WX    TMP DP  RH WIND       PRES   REMARKS
KANSAS CTY INT CLEAR     77  63  61 E6        29.83R
KANSAS C DTWN  CLEAR     76  64  66 E5        29.81R
LEE`S SUMMIT   CLEAR     75  65  70 E3        29.83R
ST JOSEPH      PTCLDY    73  65  75 CALM      29.82R
CHILLICOTHE      N/A     70  66  87 CALM      29.83R
KIRKSVILLE     CLEAR     65  63  93 CALM      29.85R

$$
MOZ066>068-077>081-088>096-101>105-270400-
...SOUTHWEST MISSOURI...

CITY           SKY/WX    TMP DP  RH WIND       PRES   REMARKS
SPRINGFIELD    MOCLDY    76  70  82 E7        29.84R
JOPLIN         MOCLDY    77  70  79 E5        29.82R
BRANSON        CLOUDY    75  70  83 SE5       29.85R

$$
MOZ032>034-039>042-045>050-055>058-069>072-270400-
...CENTRAL MISSOURI...

CITY           SKY/WX    TMP DP  RH WIND       PRES   REMARKS
COLUMBIA       CLEAR     72  68  87 SW3       29.84R
JEFFERSON CITY CLEAR     74  67  78 CALM      29.83R
ROLLA          PTCLDY    69  68  96 S3        29.85R
SEDALIA        CLEAR     72  69  90 S6        29.84R
WARRENSBURG    CLEAR     72  64  78 S3        29.82R
OSAGE BEACH    CLEAR     69  68  96 CALM      29.85R

$$
MOZ051-052-059>065-270400-
...EAST CENTRAL MISSOURI...

CITY           SKY/WX    TMP DP  RH WIND       PRES   REMARKS
ST LOUIS INTL  PTCLDY    77  67  71 SW8       29.82R
SPIRIT OF STL  MOCLDY    74  70  87 S7        29.81R
ST CHARLES     MOCLDY    72  68  87 CALM      29.80R

$$
MOZ072>076-082>087-097>100-106>115-270400-
...SOUTH CENTRAL AND SOUTHEAST MISSOURI...

CITY           SKY/WX    TMP DP  RH WIND       PRES   REMARKS
CAPE GIRARDEAU CLOUDY    72  67  84 S6        29.85R
FARMINGTON     CLOUDY    70  67  90 CALM      29.87R
POPLAR BLUFF   CLOUDY    72  69  90 CALM      29.85R
WEST PLAINS    CLOUDY    74  68  81 S7        29.88R

$$



USA.gov is the U.S. government's official web portal to all federal, state and local government web resources and services.